Weather History for Houston Intercontinental, TX

Change the Weather History Date:

Monday, September 4, 2000

  Actual Average Record
Temperature  
Mean Temperature 92 °F -  
Max Temperature 109 °F 89 °F 109 °F (2000)
Min Temperature 75 °F 70 °F 71 °F (1997)
Cooling Degree Days 27    
Growing Degree Days 42 (Base 50)    
Moisture  
Dew Point 66 °F    
Average Humidity 50    
Maximum Humidity 85    
Minimum Humidity 20    
Precipitation  
Precipitation 0.00 in - - ()
Sea Level Pressure  
Sea Level Pressure 29.84 in    
Wind  
Wind Speed 4 mph (ESE)    
Max Wind Speed 13 mph    
Max Gust Speed 22 mph    
Visibility 10 miles    
Events      
Averages and records for this station are not official NWS values.
T = Trace of Precipitation, MM = Missing Value Source: NWS Daily Summary

Daily Weather History Graph

Daily Weather History Graph

Search for Another Location

Airport:

Trip Planner

Search our weather history database for the weather conditions in past years. The results will help you decide how hot, cold, wet, or windy it might be!

Date:

Astronomy

Sep. 04, 2000 Rise Set
Actual Time 7:00 AM CDT 7:39 PM CDT
Civil Twilight 6:35 AM CDT 8:03 PM CDT
Nautical Twilight 6:07 AM CDT 8:32 PM CDT
Astronomical Twilight 5:38 AM CDT 9:01 PM CDT
Moon 1:08 PM CDT (9/4) No Moon Set
Length of Visible Light 13h 27m
Length of Day
12h 39m
Waxing Crescent, 40% of the Moon is Illuminated
Sep 4
Waxing Crescent
Sep 5
First Quarter
Sep 13
Full
Sep 20
Last Quarter
Sep 27
New

Hourly Weather History & Observations

Time (CDT) Temp. Heat Index Dew Point Humidity Pressure Visibility Wind Dir Wind Speed Gust Speed Precip Events Conditions
12:53 AM 82.9 °F 87.0 °F 70.0 °F 65% 29.84 in 10.0 mi ESE 4.6 mph - N/A   Scattered Clouds
1:53 AM 82.9 °F 86.5 °F 69.1 °F 63% 29.84 in 10.0 mi Calm Calm - N/A   Scattered Clouds
2:53 AM 78.1 °F - 70.0 °F 76% 29.84 in 10.0 mi Calm Calm - N/A   Clear
3:53 AM 75.9 °F - 71.1 °F 85% 29.84 in 10.0 mi Calm Calm - N/A   Partly Cloudy
4:53 AM 77.0 °F - 71.1 °F 82% 29.85 in 10.0 mi Variable 3.5 mph - N/A   Partly Cloudy
5:53 AM 78.1 °F - 69.1 °F 74% 29.85 in 10.0 mi Calm Calm - N/A   Scattered Clouds
6:53 AM 75.9 °F - 69.1 °F 79% 29.86 in 10.0 mi Calm Calm - N/A   Partly Cloudy
7:53 AM 77.0 °F - 70.0 °F 79% 29.87 in 10.0 mi Calm Calm - N/A   Clear
8:53 AM 84.0 °F 87.0 °F 68.0 °F 58% 29.88 in 10.0 mi WNW 6.9 mph - N/A   Clear
9:53 AM 91.0 °F 94.3 °F 66.9 °F 45% 29.88 in 10.0 mi Variable 5.8 mph - N/A   Clear
10:53 AM 96.1 °F 98.8 °F 64.9 °F 36% 29.88 in 10.0 mi NW 6.9 mph - N/A   Clear
11:53 AM 100.9 °F 103.3 °F 63.0 °F 29% 29.86 in 10.0 mi Variable 6.9 mph - N/A   Partly Cloudy
12:53 PM 106.0 °F 107.8 °F 61.0 °F 23% 29.85 in 10.0 mi Variable 6.9 mph - N/A   Clear
1:53 PM 107.1 °F 108.1 °F 59.0 °F 21% 29.82 in 10.0 mi NE 11.5 mph 18.4 mph N/A   Partly Cloudy
2:53 PM 109.0 °F 110.5 °F 59.0 °F 20% 29.81 in 10.0 mi East 12.7 mph 21.9 mph N/A   Scattered Clouds
3:53 PM 108.0 °F 110.3 °F 61.0 °F 22% 29.79 in 10.0 mi East 12.7 mph - N/A   Scattered Clouds
4:53 PM 106.0 °F 108.6 °F 62.1 °F 24% 29.79 in 10.0 mi ESE 12.7 mph - N/A   Scattered Clouds
5:53 PM 106.0 °F 107.8 °F 61.0 °F 23% 29.79 in 10.0 mi East 12.7 mph - N/A   Scattered Clouds
6:53 PM 100.0 °F 101.8 °F 63.0 °F 29% 29.80 in 10.0 mi SE 8.1 mph - N/A   Scattered Clouds
7:53 PM 93.0 °F 95.9 °F 66.0 °F 41% 29.82 in 10.0 mi SSE 6.9 mph - N/A   Scattered Clouds
8:53 PM 90.0 °F 92.8 °F 66.9 °F 46% 29.84 in 10.0 mi SSE 4.6 mph - N/A   Scattered Clouds
9:53 PM 89.1 °F 92.9 °F 68.0 °F 50% 29.87 in 10.0 mi South 3.5 mph - N/A   Scattered Clouds
10:53 PM 86.0 °F 88.8 °F 66.9 °F 53% 29.87 in 10.0 mi Calm Calm - N/A   Partly Cloudy
11:53 PM 82.0 °F 85.5 °F 69.1 °F 65% 29.88 in 10.0 mi Calm Calm - N/A   Scattered Clouds